RH
45 45 45 42 43 43 41 44 47 46 47 47 48 49 51 54 55 56 57 56 57 58 58 58 58 57 57 57 56 55 54 53 52 51 50 47 45 44 43 44 46 46 46 46 49 56 62 65 66 64 67 70 71 76 80 81 81 78 76 75 73 72 72 74 76 73 63 57 54 51 49 51 52 53 55 59 60 60 60 59 55 48 39 40 59
46 45 45 43 44 43 41 47 51 47 44 43 45 50 55 59 60 60 61 62 64 67 68 68 67 65 63 61 60 58 57 56 55 53 51 49 48 47 47 48 49 50 52 52 55 62 67 69 69 67 70 75 78 81 83 82 84 85 83 82 80 76 74 74 75 75 70 63 57 54 53 55 56 57 58 60 63 62 62 61 57 53 45 46 66
46 47 46 46 47 45 46 56 59 51 47 53 63 71 74 72 69 67 67 68 70 72 74 75 75 74 72 69 65 62 60 58 57 56 54 52 51 51 50 52 53 54 56 57 59 65 71 72 68 65 69 77 80 79 79 77 77 80 82 83 86 84 79 77 77 76 75 69 62 58 57 57 59 61 62 63 65 64 63 62 59 57 50 48 65
46 48 49 49 50 51 57 62 60 56 64 76 85 86 81 75 73 72 72 74 75 73 72 72 73 74 75 74 73 71 68 62 58 57 56 55 54 54 54 55 57 58 59 61 64 67 71 71 64 63 69 74 74 70 70 72 72 75 78 78 82 86 86 85 83 81 78 74 68 63 61 61 62 63 65 67 67 64 63 63 61 58 51 48 59
47 52 53 52 53 58 64 66 68 77 87 91 87 82 79 78 78 76 76 77 74 70 67 66 67 68 70 72 74 76 76 72 66 60 57 57 56 56 56 58 60 63 64 66 66 67 70 68 63 66 71 68 62 57 58 63 69 76 81 80 81 84 87 89 89 89 87 83 77 70 66 68 68 67 69 70 69 65 62 63 61 56 54 56 55
49 54 54 56 60 67 75 81 88 93 90 84 79 79 81 80 75 72 70 68 65 64 64 64 63 66 70 73 77 80 82 80 76 69 62 58 58 58 59 61 63 67 70 68 67 68 70 68 66 66 65 59 53 51 53 58 65 74 79 82 85 88 89 89 90 93 94 91 86 80 76 75 74 73 72 71 71 68 65 62 58 57 63 64 55
54 61 64 70 77 83 90 93 93 86 77 75 79 82 81 76 72 69 66 63 63 63 64 64 64 65 67 71 77 84 90 91 86 79 70 63 61 61 63 66 69 72 73 70 70 73 72 71 68 61 54 53 54 55 58 62 65 70 73 79 87 92 94 93 92 96 98 96 93 89 85 82 81 79 76 73 72 71 68 65 62 65 70 68 65
64 71 76 83 90 91 90 88 84 76 74 81 86 85 81 75 71 68 65 64 64 64 65 65 63 63 62 64 68 74 85 95 95 90 81 71 67 67 69 72 74 74 74 74 75 78 78 73 64 54 52 58 62 65 67 67 68 71 74 81 90 94 97 99 98 98 100 99 97 93 91 90 87 84 81 77 76 72 66 65 71 74 72 72 78
65 74 78 85 91 88 83 83 82 78 83 94 93 87 82 77 73 71 69 66 62 63 70 68 65 65 65 66 67 70 81 94 99 97 93 84 77 74 75 78 79 78 78 80 82 83 82 74 60 54 61 68 72 75 75 73 76 82 86 92 97 98 99 101 101 101 102 101 100 96 96 97 94 90 86 81 78 72 64 67 76 77 75 80 84
63 72 75 83 89 82 75 76 75 77 92 102 96 88 84 80 76 75 76 70 64 70 78 76 77 84 84 80 77 79 87 96 100 99 99 96 90 85 82 82 82 83 84 86 88 87 82 72 61 62 71 76 79 82 81 80 87 95 98 99 101 101 101 101 100 100 101 102 101 99 99 98 94 91 87 80 74 70 68 71 78 80 84 90 87
66 67 72 86 88 76 69 68 64 73 95 104 94 88 84 79 76 76 76 72 70 74 77 76 83 93 97 96 91 87 89 95 100 99 97 98 97 95 93 89 87 89 90 91 92 90 82 73 70 74 78 80 82 84 86 89 96 101 101 100 98 95 97 101 101 100 101 101 100 99 99 96 91 88 85 80 75 73 72 76 83 90 93 95 93
67 67 81 93 86 73 71 68 65 80 99 99 89 86 83 78 77 75 73 72 71 70 69 71 75 79 84 90 93 90 85 88 99 102 97 95 95 95 98 97 95 95 96 96 96 92 85 79 80 81 79 79 84 88 91 94 96 97 94 95 96 92 92 96 97 98 100 99 98 97 96 93 89 86 83 80 77 76 80 86 93 98 99 100 100
70 77 92 94 81 75 74 71 74 87 94 89 85 87 85 80 78 76 73 71 69 68 69 72 74 74 75 80 88 91 83 79 90 98 96 93 89 91 96 98 99 101 100 100 101 98 93 89 88 86 83 86 92 96 97 97 97 95 92 96 98 92 89 91 93 97 100 99 98 97 94 92 90 86 82 80 82 88 94 97 97 95 94 94 92
77 85 95 90 80 80 78 74 78 84 87 90 93 92 87 82 79 76 73 70 70 70 73 76 76 76 77 81 91 98 89 81 86 89 90 90 89 92 95 92 93 97 97 97 98 96 94 92 91 89 87 88 92 95 98 99 98 96 96 98 98 91 88 88 86 88 93 96 97 96 95 95 95 95 91 89 93 96 97 94 87 83 82 81 79
74 85 93 89 84 84 79 75 75 78 87 99 101 95 89 85 80 75 72 70 73 75 77 80 82 84 85 90 99 101 89 84 89 88 86 88 90 96 97 90 89 91 89 90 90 88 90 91 92 92 90 90 92 94 98 98 97 96 95 96 95 93 93 90 84 80 80 81 85 88 87 83 84 90 93 95 96 92 87 83 76 74 76 77 76
73 86 93 91 88 86 80 75 69 72 88 101 101 96 91 85 78 73 70 69 74 81 84 87 93 97 97 98 103 100 88 86 94 94 90 89 91 98 102 97 95 94 89 88 88 87 89 93 96 98 97 96 94 95 98 98 97 99 100 98 95 91 88 85 83 85 85 84 83 82 77 69 68 76 79 80 81 76 72 74 76 80 84 86 87
79 92 96 93 91 87 81 75 67 69 87 101 102 98 92 84 75 71 72 77 86 95 97 98 100 102 102 100 101 101 95 95 101 100 95 92 93 99 103 101 101 101 97 94 94 95 96 98 101 101 98 96 96 95 95 93 91 92 95 98 98 97 92 84 78 80 86 89 88 89 88 81 79 82 80 78 81 82 82 87 90 94 96 97 97
89 98 98 95 94 88 80 74 67 70 86 100 103 100 93 80 71 72 80 92 100 101 100 102 101 99 101 100 98 100 98 93 94 98 97 95 95 99 102 101 100 98 95 95 94 93 92 93 98 101 99 98 100 99 94 89 88 89 90 92 96 100 98 91 83 78 76 76 78 81 83 80 80 87 92 95 97 95 94 94 93 97 101 100 98
97 100 101 98 95 87 77 71 68 72 86 99 102 96 85 73 70 78 87 97 103 101 100 102 100 99 101 98 93 96 97 84 76 84 92 92 93 98 100 100 97 92 91 95 95 92 89 86 86 89 92 93 93 91 90 88 89 91 91 94 98 97 92 90 89 86 83 81 76 69 65 65 67 74 81 85 85 82 80 82 83 88 95 94 92
94 98 103 100 92 83 74 69 69 73 87 99 96 84 74 70 74 83 90 96 101 101 100 102 101 98 97 94 89 93 98 86 70 74 87 89 88 90 93 96 98 96 96 97 99 99 97 95 91 89 92 95 92 89 89 87 85 87 91 97 102 98 92 90 90 89 89 88 79 69 67 69 71 73 73 72 71 71 72 76 77 79 85 88 88
92 100 102 95 86 79 72 70 74 80 88 90 81 71 67 66 69 77 88 97 102 102 101 101 99 93 88 89 92 94 96 89 75 76 87 90 85 86 91 97 101 100 96 91 94 97 94 92 92 89 90 97 98 93 90 87 85 89 92 94 94 90 88 91 92 91 92 90 85 80 80 81 81 80 78 73 72 73 75 79 79 81 87 90 91
98 100 94 87 82 75 72 77 84 86 84 76 66 62 59 58 63 73 85 96 102 104 101 95 94 93 89 91 94 94 94 94 89 85 88 90 87 85 90 97 101 100 92 82 85 93 90 81 75 72 78 91 92 85 84 87 91 94 94 92 92 90 92 97 98 97 98 99 98 96 94 93 90 86 83 79 75 75 77 80 85 89 90 90 93
97 92 86 82 78 74 80 91 92 84 75 66 62 60 59 63 74 84 93 99 103 104 100 95 96 98 96 93 91 90 93 96 95 88 85 90 92 87 87 96 101 101 97 88 88 95 92 78 67 63 72 84 83 80 87 95 98 97 95 97 98 93 89 92 94 95 97 97 98 100 100 100 98 94 89 84 80 81 86 89 91 91 91 93 97
89 84 81 80 80 85 95 100 91 77 69 65 63 63 67 78 91 97 101 103 103 102 100 100 100 101 100 96 90 91 97 98 92 85 81 85 93 96 98 99 95 95 98 95 93 95 91 81 77 78 82 84 83 87 95 96 93 95 100 102 97 84 77 80 84 87 89 88 88 92 95 97 101 100 93 89 90 94 95 90 84 84 90 94 94
83 83 85 89 94 98 100 93 80 70 66 65 67 73 82 94 102 103 103 102 101 100 100 100 100 101 103 101 93 93 101 97 89 85 82 80 83 90 93 85 73 75 86 85 83 89 94 93 91 91 90 89 89 94 93 82 77 87 97 96 88 80 77 76 75 78 83 87 91 91 87 86 94 97 95 96 97 93 84 75 71 77 88 93 90
89 93 94 96 96 91 84 76 70 68 68 70 77 86 94 102 105 104 101 100 100 100 100 100 101 101 103 102 97 98 102 98 90 86 82 77 74 74 75 71 65 69 77 74 71 78 87 91 92 91 91 92 94 98 96 84 74 76 82 82 81 81 79 77 77 78 78 82 90 93 88 86 91 95 95 93 89 81 76 74 74 81 90 92 88
92 91 87 85 81 75 72 70 70 75 80 84 89 91 91 97 105 106 103 101 100 100 100 100 100 101 102 102 101 102 103 96 88 82 78 79 81 79 79 82 82 82 80 75 75 78 84 91 96 97 97 98 98 98 98 92 83 79 80 81 82 82 82 85 89 86 76 71 76 80 85 92 97 98 97 91 81 75 76 79 83 91 95 91 85
85 82 78 76 73 69 68 71 77 87 95 96 94 89 84 90 101 104 102 101 102 101 101 101 101 101 101 101 103 105 100 90 85 86 88 89 92 92 91 91 92 90 85 82 84 88 93 97 97 95 93 93 93 92 91 89 87 84 82 81 80 80 81 82 83 79 71 68 67 66 70 80 87 91 93 89 81 76 79 86 93 96 92 85 81
81 78 75 72 69 67 69 77 89 99 101 97 90 80 75 84 100 105 100 99 101 102 101 102 103 101 100 101 101 100 94 88 90 96 97 94 93 93 91 91 93 92 90 90 93 97 99 97 94 92 91 89 87 86 83 81 80 78 76 76 75 74 73 72 73 71 65 64 64 61 60 64 71 81 91 91 84 83 89 96 97 93 87 82 80
81 78 76 72 70 74 83 92 97 100 99 99 96 85 72 73 87 97 99 97 98 98 99 101 102 101 101 101 100 96 94 94 95 96 94 92 92 90 88 89 92 92 93 96 98 94 89 87 87 89 91 92 91 88 84 83 82 80 76 73 70 67 66 65 65 64 63 69 77 76 70 64 63 73 90 97 92 93 100 101 96 88 82 79 77
85 83 80 77 78 86 96 98 96 96 98 102 104 100 90 77 69 73 87 97 99 96 94 95 97 97 98 98 97 94 93 93 92 91 91 91 89 89 91 93 94 96 100 100 91 78 74 79 85 86 89 94 96 93 89 89 89 85 79 72 66 66 69 67 62 63 72 84 92 91 89 84 74 74 89 99 97 99 103 99 89 81 76 76 76
90 88 86 84 86 89 91 91 94 101 104 102 100 102 106 100 85 77 85 95 98 96 96 97 97 96 96 98 97 93 90 89 88 88 90 89 87 91 97 98 98 99 95 85 75 72 78 89 94 93 95 100 101 98 93 90 86 82 80 78 75 77 82 81 78 82 92 97 96 93 94 95 91 89 96 100 100 101 100 91 83 77 74 75 78
95 93 91 89 86 82 80 85 97 105 105 103 104 105 107 107 101 94 92 91 89 89 94 99 101 100 98 99 99 96 91 89 88 88 88 87 90 97 101 97 94 89 79 74 80 88 95 99 100 99 100 101 101 101 99 96 93 91 91 93 94 93 93 93 95 99 100 100 100 99 96 95 98 101 101 100 100 99 91 82 79 78 78 80 83
101 98 93 90 84 78 76 86 100 107 105 105 107 106 105 103 102 101 100 96 91 88 89 94 102 102 97 94 94 94 91 89 89 91 91 92 97 101 96 84 77 73 73 83 98 102 100 100 102 102 102 101 100 100 100 99 100 100 98 99 101 101 100 101 103 103 102 101 102 103 99 97 100 103 102 101 101 97 87 80 80 81 84 88 89
105 101 94 90 83 76 78 89 100 105 106 103 102 102 103 101 100 104 106 104 101 98 95 96 100 99 91 84 82 83 87 92 93 93 94 98 99 93 81 73 72 75 81 93 101 101 101 105 107 106 106 106 103 103 102 101 101 100 100 102 104 103 102 102 102 102 101 101 100 99 99 100 100 101 102 102 98 91 84 82 82 82 85 90 92
107 100 95 90 82 78 84 92 96 98 100 101 100 101 99 92 92 100 104 104 104 105 103 102 103 97 87 79 74 72 78 89 95 95 98 102 96 81 73 77 84 87 91 98 102 101 101 103 103 102 103 105 105 105 106 106 104 104 105 106 104 100 97 99 102 102 100 100 100 99 101 102 101 101 102 98 90 86 83 82 84 85 87 92 97
106 101 97 90 84 85 90 92 90 91 98 102 102 98 92 86 87 96 101 101 101 103 103 102 98 89 81 77 73 70 75 86 93 93 93 92 85 77 77 82 85 87 91 96 101 102 100 97 95 94 94 97 100 102 102 103 103 103 102 101 100 97 94 96 102 103 99 99 101 100 100 102 102 100 96 90 86 85 85 83 86 89 92 97 103
103 102 98 92 90 94 96 95 93 94 99 104 100 93 92 93 95 98 103 102 99 99 102 102 94 85 81 78 75 75 82 89 89 85 82 81 80 81 83 84 84 85 88 91 96 102 101 95 90 88 86 88 91 94 96 97 96 96 96 94 92 91 89 92 98 101 100 100 100 99 100 102 101 96 91 88 87 87 87 86 89 92 96 100 104
103 103 97 94 97 100 99 101 103 102 102 102 98 94 97 103 102 100 104 104 99 98 103 105 99 92 89 85 81 85 94 95 90 85 84 84 86 87 87 85 85 85 87 91 98 102 100 94 89 85 83 84 87 91 95 96 94 92 93 93 90 86 84 88 96 102 101 99 99 101 102 101 97 94 92 92 92 91 90 90 92 95 99 102 103
104 104 98 96 99 102 104 107 109 106 103 102 99 97 100 104 104 102 104 106 105 104 105 105 101 96 92 88 88 96 101 95 88 87 88 88 89 89 87 86 87 89 93 99 100 98 94 90 86 82 80 83 89 94 98 99 97 94 93 94 93 88 84 86 94 102 103 99 99 102 103 101 99 99 98 98 98 96 94 93 94 97 101 104 104
103 102 98 97 99 103 107 110 109 105 103 101 99 99 102 104 104 104 105 106 107 107 106 105 102 97 94 93 96 102 101 90 83 86 91 91 91 90 87 87 90 95 100 101 96 91 87 84 80 81 85 90 96 101 102 102 100 97 95 95 94 91 86 85 91 100 104 100 99 101 102 103 103 103 102 102 101 99 97 95 94 97 102 104 104
102 101 98 97 99 104 108 110 108 104 103 101 100 102 104 105 104 104 105 106 106 106 106 105 100 94 93 95 97 99 96 88 84 88 92 92 92 89 87 89 94 99 101 98 92 88 85 80 79 86 94 98 102 105 105 102 101 99 97 96 96 95 92 90 93 100 104 102 100 101 103 104 104 104 104 104 103 101 99 96 94 97 103 104 104
101 100 98 99 102 104 105 106 105 104 103 103 104 104 104 103 103 104 106 107 106 105 106 106 100 93 90 91 95 96 93 89 89 93 94 93 92 90 89 91 96 98 97 95 90 87 83 80 83 91 98 101 104 106 106 104 103 101 99 97 97 97 97 97 100 103 105 104 103 103 104 104 104 103 103 104 104 103 101 97 95 99 104 105 104
100 98 98 102 104 102 99 99 102 103 104 106 105 102 100 100 102 104 105 105 106 106 106 105 102 98 92 90 93 97 96 93 93 95 95 94 93 92 92 94 95 93 91 88 84 81 82 87 93 96 97 98 101 104 104 104 103 101 100 100 99 97 98 101 103 103 102 103 105 105 104 103 102 102 103 105 105 104 101 98 99 103 105 105 104
99 98 101 104 105 101 98 99 100 102 105 108 104 98 97 100 102 100 99 101 104 107 106 104 102 102 100 99 99 100 98 97 96 96 97 96 96 95 96 95 91 88 85 82 78 79 87 96 100 99 96 96 99 101 102 101 101 100 100 100 99 98 99 102 105 104 103 104 105 105 104 102 101 100 102 104 105 104 102 100 102 105 105 104 103
99 100 103 105 105 102 100 99 100 101 105 107 104 98 96 98 98 96 97 100 103 106 108 107 103 101 101 103 106 105 102 99 98 98 98 98 98 98 95 91 88 85 82 77 77 84 95 101 102 100 98 98 99 100 100 100 100 101 101 101 101 101 102 104 105 105 104 105 105 105 103 101 100 100 102 104 104 104 102 100 102 106 106 104 102
101 101 103 104 104 102 101 100 100 100 102 105 105 103 101 101 101 101 102 103 104 105 106 105 102 98 97 99 102 104 104 102 101 101 100 100 99 96 92 89 87 84 77 74 81 93 101 102 101 101 100 100 100 101 101 101 101 102 104 105 104 103 104 104 103 103 103 103 102 101 101 100 100 102 104 104 103 103 100 99 101 105 106 104 102
101 101 102 102 100 100 101 101 100 99 101 104 106 106 104 105 108 109 106 105 106 106 105 103 101 100 98 97 98 101 103 104 103 101 100 98 96 93 92 90 86 79 75 79 90 99 101 101 101 100 100 100 100 100 101 103 105 106 108 108 106 104 102 100 98 98 98 97 96 97 98 100 102 104 104 103 103 101 98 97 100 105 106 104 103
101 101 101 100 100 100 101 100 100 100 100 102 105 104 102 105 109 109 106 105 105 104 103 105 107 106 103 101 101 103 105 105 103 100 98 96 94 93 92 88 80 77 82 91 97 100 100 101 100 100 100 102 102 102 103 106 107 106 105 106 106 105 103 100 98 97 97 96 96 99 101 102 102 103 104 103 101 98 94 94 100 106 106 104 101
100 100 100 100 100 101 100 100 101 101 99 101 103 102 101 104 107 106 104 105 105 101 100 103 108 108 105 103 104 106 107 106 103 101 99 97 96 94 90 82 78 82 92 99 101 100 100 100 100 101 103 103 102 102 104 106 105 103 102 103 104 104 103 102 101 100 100 100 100 102 103 103 102 102 102 99 95 92 92 96 102 106 105 100 95
100 100 101 100 100 101 100 100 101 100 100 101 101 100 101 105 107 106 106 109 107 104 102 104 106 108 107 107 108 110 109 106 104 103 101 100 98 92 84 79 83 92 99 101 100 100 100 100 103 104 103 101 101 103 104 104 104 105 103 102 103 104 103 102 102 102 103 103 103 101 101 101 99 97 94 91 89 91 96 101 105 104 99 91 87
Wind_Speed
17 16 15 14 13 12 12 11 11 10 10 11 11 12 13 13 14 15 16 17 17 18 18 19 20 21 23 25 27 29 30 32 32 33 34 35 36 37 37 36 36 37 35 33 29 27 26 24 22 20 19 19 20 19 19 20 21 22 24 26 28 30 29 24 14 13 20 26 28 29 28 26 24 25 24 24 24 25 27 28 28 28 27 25 23
16 15 14 14 13 13 13 11 11 12 12 13 13 13 14 14 15 16 17 17 17 18 18 19 20 21 22 24 25 27 29 30 31 31 32 34 35 36 36 36 36 36 34 32 30 28 26 24 21 20 19 19 19 19 18 18 18 19 21 22 25 28 28 27 21 14 16 23 27 27 26 23 23 23 22 22 24 25 27 27 27 27 26 23 22
15 14 13 13 13 12 12 11 11 12 13 13 12 11 12 13 14 15 16 17 17 17 18 18 19 20 21 22 23 24 25 27 28 30 31 33 34 35 36 36 36 36 35 33 31 28 25 23 21 19 19 19 19 19 19 18 17 18 19 20 21 25 26 27 25 19 16 21 25 26 24 22 22 21 20 21 23 25 26 27 26 26 26 23 22
15 13 13 12 12 11 10 10 11 12 12 10 10 10 12 13 14 15 16 17 18 18 19 19 20 20 21 22 23 23 24 25 27 28 30 32 34 35 36 36 36 36 35 34 31 28 25 22 20 19 18 18 19 19 19 19 19 19 20 21 21 22 24 24 25 23 20 20 23 25 24 21 21 21 20 21 23 24 25 25 26 26 25 22 22
14 12 12 11 11 10 10 10 11 11 10 10 11 12 14 14 15 16 17 18 20 21 21 21 22 22 23 23 24 25 25 26 27 28 29 31 33 35 35 35 35 35 34 33 30 27 24 22 20 19 18 18 18 19 18 18 19 19 20 23 23 22 22 23 24 24 23 21 22 24 23 21 20 21 19 19 21 24 25 26 26 25 22 21 21
13 11 12 11 11 10 10 10 10 9 10 12 13 14 14 15 16 17 18 19 21 21 22 23 23 24 24 24 24 25 25 26 27 28 29 30 31 33 34 34 33 33 32 31 28 26 23 22 21 20 19 18 18 17 18 18 18 19 21 23 24 23 23 23 23 23 23 23 24 24 24 22 20 20 19 17 19 21 24 27 27 22 18 20 23
13 12 12 11 10 10 9 9 9 10 13 14 14 14 14 15 16 17 17 18 19 20 21 22 23 23 24 24 24 24 24 25 26 27 28 29 30 31 32 31 31 31 31 29 27 25 24 23 22 21 19 17 17 16 16 17 17 18 20 21 22 22 23 24 23 22 22 22 23 24 24 23 20 19 18 16 17 19 21 23 24 20 17 20 23
13 12 12 11 10 10 9 10 11 13 14 13 13 13 14 15 16 17 18 18 18 19 20 21 22 23 24 24 24 24 24 25 26 26 27 28 28 29 30 30 30 30 29 28 27 26 25 24 22 20 18 17 16 16 16 16 16 18 18 19 20 21 22 23 22 22 20 19 21 22 22 20 18 17 16 14 15 19 20 18 18 19 21 21 19
14 13 13 11 9 10 10 11 12 14 13 12 12 14 15 16 17 18 18 18 19 19 19 20 22 22 23 24 24 24 24 24 24 24 25 26 27 28 28 29 29 28 28 28 29 28 26 25 22 19 17 17 17 17 17 17 17 18 18 18 18 19 20 21 21 20 19 17 18 18 16 16 16 14 14 13 14 18 20 17 17 20 22 20 17
14 13 11 9 8 10 11 12 13 14 12 12 13 15 16 17 18 18 18 19 20 20 20 21 21 22 22 23 24 24 24 24 23 23 23 25 27 28 29 29 29 29 30 30 30 30 28 25 22 19 17 17 17 17 18 18 18 19 19 18 18 19 20 20 20 20 18 17 17 15 11 12 15 15 15 17 18 20 20 18 18 19 16 14 15
11 11 9 6 7 11 13 14 16 15 12 12 15 17 18 19 20 20 20 21 22 21 21 22 21 21 22 23 23 24 23 23 23 23 24 25 26 27 28 31 31 31 32 32 33 32 30 25 20 18 17 17 18 18 19 19 19 19 19 19 20 21 21 21 21 21 19 17 17 16 13 14 17 17 18 19 19 20 19 18 17 15 11 9 9
10 10 7 5 9 13 15 16 17 14 12 14 18 19 20 22 22 22 23 23 24 23 23 23 23 22 22 23 24 24 24 24 22 23 25 26 28 28 26 27 30 33 33 32 32 30 27 22 18 16 16 17 18 18 19 19 20 20 21 21 21 22 23 24 25 23 22 20 19 19 19 19 20 20 20 20 20 19 18 16 14 12 10 9 8
11 9 6 7 11 14 16 18 17 15 15 18 21 21 22 23 22 23 24 25 25 25 24 24 24 24 24 24 25 25 26 25 23 23 23 24 27 25 20 16 18 23 23 21 20 19 18 16 15 15 16 16 17 17 18 19 20 21 22 22 22 22 24 25 26 25 23 22 20 20 21 21 22 23 22 21 18 16 13 12 12 12 14 14 15
11 9 7 9 14 15 17 18 17 17 18 20 21 21 22 22 22 23 25 25 25 25 25 25 25 25 25 25 25 26 27 26 23 23 23 23 22 15 10 11 8 7 6 6 7 9 10 12 14 15 16 15 16 18 19 20 21 21 22 22 23 25 25 26 26 25 24 22 19 19 18 18 19 18 17 16 16 15 14 15 16 18 19 19 20
12 11 9 12 15 16 18 19 19 19 20 19 20 21 21 22 23 24 25 25 25 25 25 26 26 26 26 26 26 27 27 25 24 23 22 22 20 12 10 11 10 8 8 7 6 8 9 12 14 16 16 15 15 17 18 19 20 20 21 22 23 23 24 24 25 25 26 25 24 24 23 23 22 20 16 14 16 17 17 20 22 22 22 21 20
13 11 11 13 16 17 18 19 20 20 20 19 20 21 21 22 23 24 25 25 25 24 25 25 25 25 25 26 26 27 28 25 23 22 21 20 20 14 11 10 8 8 9 10 9 10 10 12 14 15 16 16 15 15 16 16 17 19 20 22 23 24 25 24 23 22 24 25 26 27 28 28 28 27 25 24 24 26 26 25 24 22 19 16 14
12 11 12 14 16 17 18 19 20 20 19 20 21 21 21 22 23 24 24 25 25 24 24 25 24 24 24 24 23 22 21 19 17 17 18 18 19 17 14 12 10 9 9 8 9 10 10 12 14 15 16 16 16 15 15 15 18 20 22 23 24 25 27 27 26 26 26 25 26 28 28 27 26 26 27 26 25 26 23 19 16 14 11 7 6
11 11 13 15 16 17 17 18 20 20 20 20 20 21 22 23 24 23 23 24 24 24 23 23 24 23 21 20 18 16 16 15 14 14 15 16 17 17 18 17 15 13 12 11 10 9 10 11 11 13 14 14 14 14 15 17 20 22 23 25 25 25 27 27 28 28 29 28 28 29 29 28 26 26 25 21 17 15 11 8 7 8 7 6 5
11 13 15 16 16 17 17 19 20 20 20 20 20 21 23 23 23 23 22 22 23 24 23 23 23 22 19 18 17 16 17 17 17 16 15 16 17 18 19 19 19 19 18 16 14 12 11 12 12 13 14 13 14 15 17 19 21 23 25 25 25 26 28 28 28 28 28 28 27 27 27 25 24 24 25 23 20 17 14 11 10 10 10 10 9
13 15 16 16 16 17 18 20 21 20 20 20 20 21 22 23 23 23 22 22 23 23 23 22 22 22 20 19 18 16 16 16 17 16 16 16 17 18 19 19 18 16 14 11 10 9 8 9 10 12 13 13 15 18 18 20 23 25 25 24 23 25 27 27 27 26 26 26 25 25 24 23 21 20 21 20 20 18 16 15 14 14 13 13 12
16 16 16 16 18 19 20 20 20 19 19 19 21 22 22 22 23 23 23 23 22 22 22 21 22 23 21 20 18 16 14 15 16 14 13 14 15 15 15 14 11 9 9 9 9 8 7 7 7 8 9 11 13 16 18 21 22 21 21 21 23 25 26 26 27 27 27 26 25 25 25 24 22 21 19 18 17 16 15 14 15 16 14 14 13
15 15 17 18 20 21 21 19 18 18 18 18 21 23 23 23 24 23 24 23 23 22 22 22 23 23 20 18 16 15 14 14 13 12 10 10 12 12 11 10 9 9 9 11 11 10 10 11 11 11 11 11 12 15 17 17 14 12 12 14 14 14 13 13 14 16 18 21 22 23 24 23 22 21 20 18 16 15 14 14 14 14 12 11 11
15 17 19 21 22 22 20 17 15 16 17 19 21 24 25 25 24 24 23 23 23 23 22 22 22 22 20 17 15 14 14 12 10 8 7 7 8 9 10 10 10 10 10 10 11 10 11 13 14 14 14 14 16 17 16 13 11 10 13 14 13 13 11 8 6 5 5 7 11 15 18 20 22 21 20 19 17 15 13 10 8 7 6 6 7
19 21 22 23 22 20 16 14 15 16 18 20 22 24 25 25 25 24 22 22 22 22 22 22 21 21 21 19 16 16 14 10 7 6 5 5 6 8 9 10 11 11 11 11 11 11 12 14 15 15 15 16 17 16 16 15 14 13 14 13 12 13 12 10 9 8 7 6 6 6 9 12 14 16 17 16 14 10 7 5 4 3 4 5 6
23 23 22 20 17 15 14 15 17 18 20 21 22 24 24 24 24 23 23 22 21 21 21 21 20 20 20 19 19 17 11 8 6 4 4 4 5 7 9 11 12 13 12 12 13 13 13 14 15 15 16 16 16 16 17 19 18 16 14 13 13 12 10 9 8 8 7 7 7 7 7 8 8 9 10 9 8 6 5 5 5 5 5 6 7
21 19 17 15 14 14 16 18 20 21 21 21 21 22 22 23 23 23 22 21 21 21 21 20 20 20 20 20 20 15 8 7 5 4 3 5 6 8 10 12 13 13 13 13 14 14 14 14 14 14 15 15 15 14 15 17 18 17 15 13 12 11 9 8 7 7 6 7 7 7 8 9 10 9 7 7 7 8 8 7 7 6 6 7 7
16 15 15 16 16 18 19 21 22 22 21 20 20 20 20 21 22 22 21 21 21 20 20 20 20 19 19 20 19 11 8 7 4 3 4 6 8 10 12 12 12 11 12 14 13 13 13 13 13 13 13 12 12 12 12 13 13 13 13 12 10 9 8 6 6 6 7 7 8 9 9 10 10 9 9 9 11 11 10 10 8 7 7 6 7
15 16 17 18 19 20 21 22 22 21 21 20 20 21 21 21 21 20 21 21 21 20 21 22 23 22 22 21 15 8 8 5 1 3 6 8 10 12 12 11 10 11 12 13 13 13 14 14 13 13 12 12 11 11 11 11 11 11 11 10 10 9 8 8 8 8 8 8 9 10 10 11 10 10 11 13 13 13 12 11 9 7 6 5 6
17 18 19 20 21 21 21 21 20 20 21 21 21 22 21 20 19 19 20 19 19 21 22 22 23 25 22 15 9 7 5 1 2 4 7 9 10 12 12 11 11 11 12 12 13 13 13 14 14 13 13 13 12 12 13 13 13 13 12 11 11 11 11 11 11 11 11 11 11 11 11 12 12 11 12 13 14 14 13 11 9 7 5 5 6
18 19 20 20 21 20 20 20 20 20 21 21 22 23 22 19 18 18 19 18 18 19 20 19 13 7 3 2 4 4 3 4 5 7 10 11 11 12 12 11 11 11 11 11 11 12 13 14 15 14 14 13 13 13 13 13 14 14 14 14 14 14 14 13 13 13 13 12 11 12 12 12 12 12 12 13 14 13 11 10 8 7 5 4 6
18 19 19 19 19 18 19 20 21 21 21 21 21 21 23 23 21 19 18 17 17 18 17 14 11 7 7 7 5 3 4 5 7 10 11 12 12 12 11 9 8 8 9 10 11 14 15 15 16 16 15 14 14 13 13 13 14 15 16 16 16 16 16 15 15 13 13 12 11 11 11 12 13 13 13 13 13 12 11 9 8 6 5 4 6
18 18 18 18 18 18 19 20 21 21 21 21 20 20 21 22 23 21 18 16 16 17 15 12 9 6 4 4 4 5 6 7 9 10 11 11 12 10 7 6 7 8 10 12 13 15 14 13 14 15 14 14 14 14 14 15 15 15 16 17 17 16 15 15 14 13 13 13 13 13 13 13 13 14 14 13 13 12 11 10 7 5 4 5 6
18 17 17 17 18 20 21 21 21 21 21 21 21 20 19 18 19 21 22 21 19 16 13 10 9 6 4 3 4 5 6 7 8 9 10 11 10 7 5 6 8 10 11 12 11 11 10 10 11 11 11 11 12 13 13 14 14 14 14 15 16 15 14 14 13 13 14 15 15 16 16 14 14 14 14 13 12 12 11 9 6 5 5 5 6
17 16 16 17 19 21 21 21 21 21 21 21 20 19 18 16 16 18 20 21 20 18 15 12 9 6 4 4 3 4 5 6 7 7 8 9 8 6 7 10 11 10 10 8 7 7 8 9 10 10 10 10 10 10 10 10 10 11 11 11 12 12 12 12 12 13 14 15 16 18 17 15 15 15 14 13 13 12 9 7 6 5 5 5 6
16 15 16 17 19 21 21 20 21 21 21 20 18 16 16 16 16 16 17 17 17 18 19 16 11 6 5 6 6 6 6 7 7 7 8 8 7 8 10 12 11 9 8 7 7 7 8 9 10 11 12 11 11 10 10 9 9 9 9 9 10 11 12 12 12 13 15 15 17 18 17 15 15 15 14 14 14 10 7 6 5 5 5 5 7
14 15 17 19 20 21 20 20 20 20 18 17 15 15 15 16 17 17 17 17 17 17 19 17 11 7 6 7 8 9 8 7 7 8 7 7 8 10 11 10 8 8 8 8 8 7 8 9 10 11 12 12 12 12 12 11 11 11 11 11 12 13 14 14 16 17 16 15 14 14 14 14 14 13 13 12 10 7 5 5 4 5 5 6 7
14 16 18 20 20 20 20 20 19 18 16 14 14 15 17 17 17 17 17 18 18 18 17 14 9 7 7 8 8 9 8 7 6 7 6 6 8 10 9 7 7 8 8 8 8 8 9 9 10 11 12 13 13 13 13 13 13 13 13 13 14 14 15 16 17 18 15 11 9 10 10 12 12 12 12 9 7 5 5 4 4 5 6 6 7
15 16 18 19 19 19 19 20 19 16 14 13 15 16 17 17 16 16 17 18 18 18 16 12 9 8 9 8 8 8 7 6 6 6 7 8 8 8 7 7 8 8 8 8 8 9 9 10 10 11 12 13 13 14 14 14 14 14 15 15 15 15 16 16 17 18 15 8 4 5 7 10 11 11 9 6 5 4 3 3 4 5 6 7 7
16 17 18 19 19 18 18 18 18 16 13 13 15 16 16 16 15 16 17 18 18 17 16 13 10 9 8 8 8 8 7 6 6 7 7 7 7 7 7 8 8 8 9 9 8 9 10 11 12 12 13 13 13 13 13 14 15 15 15 16 16 16 16 16 17 18 17 10 3 4 7 9 9 8 6 4 3 2 3 4 5 6 7 8 8
16 17 19 20 20 18 17 16 15 14 13 14 16 16 15 15 15 15 16 16 16 16 15 13 11 9 8 8 8 7 5 5 6 7 7 7 6 6 7 8 9 9 9 9 9 9 10 11 12 13 14 14 14 13 13 13 14 14 15 15 15 15 15 15 15 16 15 11 6 5 5 5 5 4 3 2 1 3 3 5 6 7 8 8 9
16 17 20 22 21 18 16 14 14 13 13 14 15 15 14 14 14 14 15 15 15 15 13 11 10 8 7 6 6 5 5 6 7 7 6 6 6 7 8 9 9 9 9 9 10 11 12 13 14 14 14 14 13 12 12 13 13 14 15 15 14 14 14 13 13 12 11 9 6 4 3 2 2 1 1 1 3 4 5 6 7 8 8 8 8
15 17 21 24 21 17 14 13 13 13 14 14 14 13 13 13 13 14 14 13 14 14 12 10 9 7 6 6 6 6 7 8 8 6 5 5 6 7 9 9 9 9 9 10 11 13 14 15 15 15 14 13 12 11 12 12 13 14 15 15 14 14 13 12 11 10 9 7 6 4 3 2 2 2 3 3 4 5 6 7 7 8 8 8 7
16 19 22 22 18 14 13 13 13 13 13 13 13 12 12 12 12 12 12 12 12 12 12 11 9 8 7 7 7 7 7 7 6 5 5 5 7 8 9 9 9 9 10 12 13 14 15 15 15 14 13 11 11 11 11 12 13 14 14 15 14 13 12 11 10 9 8 7 5 4 4 4 4 4 4 4 5 6 6 7 8 8 7 7 6
18 22 22 19 15 13 12 12 13 13 13 12 11 11 11 12 11 11 11 11 11 11 11 10 10 9 9 9 8 8 6 5 5 5 5 6 7 8 9 9 10 11 13 14 14 13 13 14 14 13 12 11 10 11 11 12 12 13 14 14 14 13 11 10 9 9 9 8 7 6 6 5 5 5 5 5 6 7 7 7 8 7 7 6 6
20 22 19 16 14 13 13 13 13 12 12 11 11 11 11 10 10 10 11 11 11 10 10 9 9 9 9 9 8 7 5 4 4 5 5 6 8 9 9 11 12 14 15 14 13 12 12 13 13 12 12 11 11 11 11 11 11 11 12 13 13 12 10 9 8 8 8 9 9 8 8 7 7 7 7 7 7 7 7 7 7 7 7 6 6
21 19 17 15 14 13 13 13 13 12 11 11 11 11 10 10 9 10 11 11 10 10 9 9 9 9 9 9 8 6 5 4 4 5 6 7 8 9 11 13 14 15 15 14 12 12 12 12 11 11 11 12 11 11 11 10 10 10 10 11 11 11 10 9 8 8 8 8 9 9 9 9 8 8 8 8 7 7 7 7 7 6 6 6 5
19 16 15 14 13 12 12 12 12 11 11 11 11 10 10 10 10 10 10 10 9 9 8 8 8 9 9 9 9 8 7 6 5 6 6 7 9 10 12 14 15 16 15 13 12 11 11 10 10 10 11 11 11 11 10 9 8 9 9 9 10 11 10 9 9 9 8 8 9 9 9 9 9 8 8 8 7 7 7 7 6 6 5 5 5
16 15 14 13 13 12 12 12 12 12 12 12 11 10 10 10 10 10 10 9 9 8 8 8 8 9 9 9 9 8 8 7 6 6 7 8 10 12 13 15 16 16 15 13 11 11 10 9 9 9 10 10 11 11 11 10 9 9 9 9 10 10 10 10 10 9 9 9 9 9 9 9 9 8 8 7 7 7 7 7 6 6 5 4 4
13 13 13 13 13 13 12 12 12 12 12 12 11 11 10 10 11 10 9 9 9 8 8 9 9 9 9 10 9 8 7 7 6 7 8 9 11 12 14 15 15 14 13 12 11 10 9 9 9 9 10 10 11 11 11 10 9 9 9 8 8 9 9 9 9 9 9 9 9 9 9 9 8 8 7 7 7 7 7 7 6 5 4 4 3
12 13 12 13 13 13 12 12 12 11 11 11 11 11 11 11 11 10 10 9 8 8 8 9 9 9 9 9 10 9 8 7 7 8 8 10 11 13 14 15 14 12 12 11 11 10 9 9 9 9 9 10 10 9 9 8 8 8 7 6 6 6 6 7 7 7 7 7 7 7 7 7 7 6 6 7 7 7 7 7 6 4 3 3 2
13 13 12 13 13 12 12 12 12 11 11 11 10 11 11 11 11 10 10 9 8 9 9 10 9 9 8 8 9 8 7 7 7 8 9 10 12 14 14 14 13 12 11 11 10 10 9 9 9 9 9 9 8 8 7 7 7 7 7 7 6 5 5 4 4 4 4 4 4 5 5 5 5 6 7 7 7 7 6 6 4 3 2 2 2
Wind_Direction
42 37 32 27 21 15 10 3 355 347 341 337 332 330 327 324 322 320 317 316 317 315 313 311 308 305 301 295 290 285 280 275 271 266 259 255 252 249 247 244 241 240 241 239 235 232 231 233 236 241 245 251 256 258 260 263 263 264 264 262 260 257 253 248 249 264 262 262 265 269 273 277 279 286 293 300 309 317 324 327 331 335 332 324 321
34 29 24 19 14 8 3 357 348 344 340 337 336 334 331 329 326 324 322 321 322 320 317 314 310 306 303 298 294 289 283 278 273 267 261 257 254 251 247 243 241 239 237 234 230 227 227 230 233 239 243 248 252 255 258 262 265 266 267 265 263 261 257 252 250 257 263 261 262 265 268 270 274 280 288 296 307 316 320 323 327 331 330 322 315
27 20 16 12 7 1 358 355 346 343 344 343 344 342 337 335 332 330 328 326 325 324 322 321 317 313 309 304 300 295 290 285 280 273 266 261 257 254 250 244 241 238 234 230 227 224 225 228 234 240 244 247 251 255 260 264 268 271 271 270 268 266 263 258 254 254 260 261 260 261 262 263 267 273 283 293 304 313 316 318 322 325 326 320 311
20 14 10 5 0 357 356 351 343 345 352 353 353 349 341 339 338 334 332 329 327 326 325 325 323 320 317 314 310 306 302 297 291 283 276 269 262 258 253 247 242 238 234 229 225 223 224 229 237 243 245 248 254 259 263 267 270 271 272 272 271 270 268 265 261 258 260 262 260 258 258 258 261 269 281 292 299 307 311 313 317 321 322 318 310
16 12 5 359 358 358 353 349 351 358 4 360 353 348 343 342 339 335 333 329 326 325 324 323 324 322 319 317 315 313 311 308 302 294 286 277 269 262 256 250 243 237 233 228 225 225 228 234 242 244 243 246 254 260 265 269 271 270 271 272 271 272 271 269 268 265 262 261 261 259 257 255 259 268 277 289 298 304 307 309 313 316 317 317 316
13 8 3 0 1 0 358 1 9 10 2 353 348 346 343 340 337 335 334 329 326 325 324 321 322 321 319 317 314 313 313 312 308 302 295 285 275 265 257 250 243 236 230 228 227 229 233 239 244 242 240 244 252 261 266 268 270 270 270 273 273 273 273 272 272 269 264 260 259 258 255 253 258 266 272 285 297 301 304 308 310 312 315 321 324
12 8 6 8 9 11 12 13 8 357 351 347 345 343 340 338 338 337 335 333 331 329 327 324 322 321 319 317 315 314 313 312 310 306 300 291 279 268 257 247 239 232 228 229 231 234 238 240 241 240 241 246 252 259 264 264 267 270 270 272 273 273 274 274 272 269 264 260 256 254 254 253 256 262 270 282 292 294 298 303 304 307 314 321 323
10 8 9 14 17 15 9 0 351 346 346 345 343 341 339 339 339 337 336 336 334 332 329 328 325 322 320 319 317 316 314 312 310 306 300 291 280 267 255 244 236 231 231 234 237 238 239 238 238 240 243 248 252 255 258 261 264 268 270 272 274 275 274 273 272 268 261 257 255 252 250 251 251 257 269 279 285 290 296 295 292 297 307 314 318
5 2 5 10 7 356 349 347 346 346 346 344 342 341 340 339 337 336 335 334 332 331 330 328 327 324 323 320 319 317 314 311 309 304 297 289 278 266 254 243 237 236 237 240 240 239 238 236 236 241 245 249 253 254 255 258 260 263 268 270 272 272 271 270 269 266 259 252 251 251 247 247 249 253 263 269 274 286 293 289 282 288 299 307 310
357 352 353 353 344 341 345 347 346 345 342 338 339 340 338 337 336 335 335 334 333 332 330 328 328 327 326 325 323 321 317 311 307 301 294 286 277 267 256 249 245 244 244 243 241 239 236 234 235 241 248 251 254 255 255 257 256 256 260 263 265 267 267 265 263 261 257 248 244 245 244 248 251 250 257 268 275 280 282 279 279 286 296 301 304
346 340 339 335 335 345 349 348 345 343 337 333 337 338 336 336 336 335 334 334 333 331 328 327 326 325 325 326 326 326 324 319 310 300 293 288 283 274 262 255 251 249 246 244 242 237 232 230 233 240 248 252 255 256 256 256 254 252 256 260 263 265 264 263 261 258 254 250 248 246 244 253 258 256 258 267 271 272 272 272 273 279 286 290 298
341 339 336 327 336 345 345 344 345 343 335 330 332 333 333 334 334 333 333 332 330 328 326 323 321 320 319 318 319 320 321 321 317 308 299 294 293 290 282 271 259 252 247 244 240 233 227 228 233 240 248 253 256 257 255 255 256 257 261 263 264 267 265 262 261 257 250 248 249 248 247 252 257 257 257 261 262 263 265 264 258 261 272 275 276
344 343 332 323 335 341 341 342 344 339 331 327 328 330 332 333 333 333 331 330 329 326 325 322 319 317 315 314 312 311 313 316 317 313 308 303 301 302 307 302 273 256 250 245 239 233 230 235 241 245 252 255 256 257 256 258 261 262 264 265 266 269 268 264 263 262 257 250 247 248 250 252 254 256 257 258 255 249 244 241 242 254 266 269 274
344 338 322 323 333 337 338 341 340 333 327 325 325 328 330 331 331 331 330 329 327 325 323 320 317 315 314 312 310 308 308 311 310 307 307 308 310 319 343 346 324 289 282 273 257 253 251 253 256 257 260 260 256 255 256 259 263 263 264 265 267 269 270 267 264 265 267 265 263 264 265 262 260 259 256 245 234 231 235 245 258 267 271 274 280
342 331 318 323 332 335 338 339 335 330 326 323 323 327 329 329 329 330 328 325 323 321 320 318 315 314 313 311 309 306 304 306 304 300 301 303 308 328 358 351 344 344 337 326 307 287 269 261 263 263 262 260 255 253 255 258 261 262 262 263 265 267 267 267 264 263 266 269 272 275 276 275 273 271 266 251 239 243 253 263 270 272 275 280 283
338 326 317 324 331 333 336 335 333 331 326 321 322 325 327 327 328 328 326 322 321 319 317 316 313 311 310 309 307 305 305 304 299 295 298 301 305 323 351 357 351 341 330 322 309 292 274 262 259 258 256 256 255 253 255 259 262 264 265 265 266 267 267 267 265 264 264 266 270 273 274 274 272 270 269 265 261 263 264 266 268 267 269 277 277
331 319 316 324 328 330 333 333 332 331 325 319 320 323 325 326 327 328 324 320 319 318 315 313 309 307 308 310 310 309 310 310 304 299 300 302 307 319 335 344 343 333 325 316 298 282 270 261 259 259 259 258 258 257 259 263 266 267 268 268 267 266 266 267 268 267 266 266 267 269 269 269 267 266 267 265 264 265 260 254 257 257 255 260 259
325 316 318 323 324 325 329 330 330 328 323 318 318 321 324 326 326 326 323 318 316 315 313 310 308 308 309 310 314 314 315 318 317 313 307 304 309 319 326 331 331 325 318 309 297 286 275 270 267 266 265 262 259 261 262 264 266 267 267 266 264 262 263 267 268 268 268 267 267 268 270 270 270 270 270 269 269 270 260 247 255 252 238 240 253
322 318 318 319 319 321 326 328 329 327 323 319 320 322 325 325 324 324 322 318 315 314 313 309 308 310 308 307 309 309 309 312 313 313 310 306 307 315 322 324 321 316 311 303 297 291 280 274 269 265 265 267 264 265 266 265 264 264 264 262 258 258 261 264 265 265 266 266 265 268 270 271 269 267 267 267 270 273 275 273 269 258 245 246 255
322 316 314 314 317 321 326 328 327 325 322 320 320 323 324 323 323 322 322 320 316 313 313 310 307 306 304 304 305 302 302 306 308 309 310 307 306 309 312 314 314 316 322 323 319 312 294 283 275 269 270 271 268 269 270 269 268 268 267 262 258 259 263 264 263 263 263 264 265 268 270 272 272 269 266 265 264 265 269 271 268 263 257 252 250
319 314 313 315 318 322 326 326 323 320 320 320 321 322 324 324 323 322 320 318 315 311 310 309 308 306 304 303 301 298 299 303 304 308 311 309 308 307 306 313 325 340 355 0 358 352 340 327 315 302 295 285 276 273 272 273 275 276 276 274 271 269 266 262 261 261 259 259 262 265 268 271 272 271 268 266 262 260 261 261 263 265 262 256 250
317 314 316 317 319 322 323 321 318 317 318 322 323 323 325 324 322 320 318 315 312 310 309 310 311 310 308 304 299 297 300 301 302 306 313 316 313 305 306 326 352 5 1 351 345 342 333 326 321 315 311 300 286 275 274 283 293 295 297 304 307 304 291 271 263 261 256 253 254 257 261 266 268 269 269 267 264 263 262 261 263 265 264 263 259
317 317 318 318 318 319 318 315 315 317 319 324 325 324 324 322 320 318 317 313 310 308 308 311 311 311 312 310 304 303 302 298 295 298 308 324 320 305 308 332 353 3 359 346 335 325 312 308 308 307 303 295 284 278 286 309 326 317 315 330 345 346 342 336 324 310 288 268 256 252 256 261 265 268 270 269 269 271 272 270 267 266 264 268 271
319 318 317 316 316 315 314 313 315 319 322 325 324 322 321 319 318 317 316 312 308 304 304 307 307 306 307 307 306 306 300 286 278 283 291 314 327 320 324 338 348 352 349 340 332 323 308 303 303 300 294 288 284 288 301 315 319 315 318 328 332 331 332 333 330 327 323 320 307 278 268 269 271 272 274 275 277 279 279 275 266 263 258 261 271
318 318 317 317 317 317 316 317 319 322 324 325 323 320 317 316 316 316 315 312 306 302 301 303 301 300 300 301 303 303 290 261 257 273 285 303 319 327 332 334 336 338 336 328 324 319 310 304 299 296 293 289 290 296 299 299 301 308 314 315 313 316 318 318 319 318 312 310 310 302 293 291 290 288 287 286 283 283 290 291 285 277 262 260 275
320 322 324 325 326 324 322 322 323 324 324 323 321 317 317 316 314 313 313 310 305 302 301 299 298 296 292 293 299 296 267 234 244 261 282 309 317 324 332 333 332 332 324 315 310 306 304 303 300 299 298 294 292 295 295 293 295 300 302 303 304 303 301 301 305 306 306 306 302 294 289 289 291 291 287 284 282 287 297 299 292 285 274 270 278
328 332 334 333 330 329 327 325 325 324 323 323 322 318 318 317 314 313 314 311 306 304 301 297 296 293 287 289 296 284 233 218 241 270 307 329 331 331 332 330 326 321 314 309 307 306 307 307 304 302 300 296 292 290 290 292 293 293 293 295 294 292 293 297 293 287 291 297 295 289 284 282 283 280 276 279 282 286 292 296 290 280 272 274 279
335 334 335 333 331 331 329 326 325 323 322 323 321 318 319 318 315 313 315 314 309 302 297 292 286 282 282 285 281 241 199 206 261 340 337 336 333 329 327 324 319 314 311 310 309 308 306 304 301 301 303 304 302 298 295 295 298 299 298 295 292 289 287 288 286 284 285 289 290 287 284 281 277 271 269 272 273 275 281 285 281 269 262 268 279
335 334 333 332 331 330 328 326 325 322 320 320 318 316 315 315 312 312 314 316 312 306 307 306 290 276 273 274 251 194 162 108 2 351 336 329 326 324 321 318 314 310 310 312 312 309 305 303 303 306 309 311 310 308 306 305 304 303 303 303 302 299 293 291 290 288 288 292 292 286 283 281 279 275 272 269 265 268 273 271 261 254 254 261 273
335 333 333 332 331 330 327 324 322 319 318 319 319 317 315 310 305 305 308 312 313 312 324 341 337 297 256 110 119 122 81 27 350 339 331 324 322 319 314 311 308 309 314 320 318 313 312 311 310 309 309 309 308 306 305 306 305 304 304 306 306 303 300 296 291 288 289 293 292 286 281 277 275 276 276 269 262 262 261 250 240 242 246 254 271
333 331 332 332 332 331 325 321 321 320 320 322 322 321 319 314 310 309 308 310 314 315 322 345 13 43 80 81 69 44 20 360 342 335 331 325 320 316 312 310 311 317 327 330 322 316 315 313 309 307 304 301 298 298 298 299 301 303 305 305 303 302 299 294 288 287 288 287 285 283 279 270 267 269 271 269 264 255 240 226 225 237 248 256 271
327 326 328 330 331 330 325 322 322 322 322 324 323 321 319 317 316 319 318 311 312 316 317 327 348 9 31 34 16 356 350 346 338 332 330 324 320 320 322 326 328 331 331 325 316 312 312 312 311 311 308 301 295 293 293 293 294 297 300 300 299 298 295 291 290 289 286 282 282 283 279 270 264 262 265 268 260 239 220 213 219 231 242 255 267
321 320 325 329 331 330 327 324 324 322 322 322 320 318 317 315 315 319 321 319 317 315 313 319 332 339 347 0 0 348 340 337 331 326 323 318 319 331 347 343 337 334 328 320 315 314 320 328 331 330 326 316 307 302 298 294 294 297 298 297 297 297 295 294 292 287 281 279 280 281 279 272 262 258 261 260 245 225 213 211 220 230 237 253 269
315 315 320 327 330 329 327 326 324 322 321 319 318 316 316 317 318 319 320 323 324 319 316 319 322 315 316 337 352 352 344 337 330 326 322 322 332 349 343 331 330 330 325 325 332 339 342 345 346 348 349 344 338 331 321 312 308 307 304 300 301 304 306 305 300 292 287 285 281 277 274 267 256 252 251 240 224 215 212 213 223 238 245 257 277
311 311 318 326 329 328 327 325 323 320 320 320 320 320 320 323 326 324 322 322 321 317 318 322 319 307 311 330 341 344 346 346 343 339 336 338 346 344 335 333 337 336 332 339 352 355 353 350 349 352 355 354 353 352 346 339 335 331 326 322 322 326 328 328 325 318 308 295 282 274 266 256 249 246 238 222 210 207 212 218 229 250 265 279 292
311 313 319 325 328 327 324 322 320 320 320 320 319 321 325 328 329 327 326 327 325 321 321 323 320 308 314 330 338 340 344 349 348 345 348 352 346 341 344 351 354 345 338 343 347 348 348 348 347 348 349 349 350 350 348 346 346 344 343 341 340 340 341 339 337 332 320 298 278 265 253 245 240 230 214 205 202 207 219 228 241 268 289 300 302
313 317 322 325 326 323 319 317 318 319 320 319 320 324 327 329 329 328 327 328 329 328 328 328 325 321 325 332 338 338 337 340 343 340 341 339 337 342 352 357 351 342 338 338 340 338 337 338 340 340 340 340 341 340 339 340 341 341 342 343 342 344 344 342 342 341 332 306 274 255 240 227 213 196 187 188 193 203 222 241 265 287 300 306 303
314 318 323 325 323 319 315 314 316 319 320 320 324 328 328 327 328 328 328 328 328 328 330 330 330 332 334 335 336 335 332 331 331 329 328 329 333 341 348 344 340 337 332 329 330 329 327 327 329 331 331 331 331 331 331 331 333 335 337 337 337 339 342 342 345 352 355 341 277 231 206 188 176 171 174 179 185 201 233 269 292 301 307 308 303
316 318 323 326 324 319 314 313 314 318 320 322 326 329 329 328 328 329 328 329 328 328 328 328 326 328 330 329 328 329 330 331 330 329 331 332 333 336 337 335 332 329 325 324 325 324 322 323 323 323 323 323 323 323 323 323 325 327 330 332 332 333 336 340 345 354 5 16 53 150 157 156 157 160 163 167 183 228 271 295 305 310 314 313 308
318 319 323 328 327 320 315 313 314 318 321 324 327 330 329 328 329 329 330 331 329 327 328 329 327 327 325 323 324 326 329 336 335 330 327 328 330 333 335 332 328 326 325 325 326 327 325 322 319 319 318 318 318 319 317 316 317 318 321 325 326 325 328 334 339 348 2 20 51 100 124 133 140 144 145 160 250 286 301 310 314 316 317 316 312
317 318 322 327 327 323 319 319 321 322 323 324 326 330 329 328 330 332 334 335 335 333 332 332 332 333 331 329 332 335 337 337 332 324 323 328 333 335 335 330 326 326 326 326 328 328 325 320 317 316 316 316 316 315 313 311 312 312 313 316 319 318 318 323 329 339 353 11 33 60 78 86 89 73 350 306 303 307 309 313 317 319 318 316 312
315 318 323 326 326 324 325 327 326 325 324 325 328 330 329 330 334 337 337 338 340 342 343 341 340 342 340 336 333 330 329 330 327 320 321 329 333 334 335 330 327 325 324 325 327 325 320 317 315 314 315 315 314 314 313 310 310 310 308 308 311 311 310 313 321 327 334 344 360 10 4 351 342 331 321 310 306 307 309 312 317 319 317 315 311
316 320 324 325 324 324 327 329 328 327 327 328 329 330 332 334 337 338 338 338 340 344 347 346 342 339 334 328 323 317 317 321 321 318 322 330 334 336 335 331 327 324 320 319 320 319 315 313 311 311 311 312 312 312 311 309 307 307 304 303 304 303 302 306 314 316 312 312 320 324 322 319 317 313 312 309 303 302 305 310 314 316 315 311 306
320 324 326 324 323 324 327 329 330 329 329 328 329 331 335 338 339 341 343 343 341 342 344 345 343 338 330 322 316 310 308 312 319 322 327 332 334 336 336 332 329 326 321 319 318 316 312 310 310 309 308 308 307 307 305 303 302 301 300 299 298 298 299 302 306 304 299 294 292 293 296 299 302 304 306 306 301 300 304 309 313 314 313 309 304
324 327 327 325 324 326 329 332 332 331 330 331 332 334 338 341 342 345 346 345 343 342 343 345 346 344 340 333 325 314 307 314 324 329 332 333 334 335 335 333 331 329 326 325 323 319 315 313 311 309 308 307 307 306 304 301 298 296 295 295 295 297 301 303 299 295 292 288 285 284 284 285 289 295 299 300 299 296 299 306 312 313 312 309 307
327 327 326 327 327 328 330 333 332 332 334 335 335 336 340 341 341 341 340 340 341 343 344 345 347 347 348 349 348 342 333 326 326 330 333 332 333 333 332 332 332 331 330 329 326 322 319 316 311 308 309 310 311 312 310 307 303 298 294 293 293 296 303 304 299 295 292 288 284 283 282 283 287 290 292 294 291 289 294 304 309 311 312 309 306
328 328 327 329 331 332 332 334 334 334 335 336 337 338 339 338 337 336 337 338 341 342 342 342 341 340 340 344 347 347 344 336 332 335 335 332 332 333 332 332 333 332 331 332 329 325 322 317 311 309 310 312 314 316 315 313 311 306 300 295 292 292 295 296 295 294 292 288 285 284 283 284 287 288 287 286 282 282 290 301 306 308 307 302 298
330 331 333 335 336 336 337 338 338 335 334 335 336 336 336 336 337 338 339 342 345 344 341 339 338 337 338 339 338 338 339 336 334 336 336 333 332 332 331 332 334 333 333 333 332 328 323 319 314 314 314 315 316 318 317 317 317 315 309 302 295 292 291 291 292 292 289 285 283 282 282 284 285 283 279 276 275 280 289 297 301 303 300 293 287
336 338 340 340 341 341 341 340 337 335 334 335 334 333 335 338 338 339 339 340 342 343 343 343 341 341 342 343 341 338 337 336 335 335 335 333 333 333 333 334 335 336 335 335 335 333 329 325 320 319 318 318 319 320 321 324 325 324 320 311 300 293 290 289 287 285 283 279 277 277 278 279 278 275 270 268 273 282 289 293 296 295 288 280 272
343 344 344 342 342 342 342 340 338 337 336 335 334 334 337 338 338 338 337 337 338 339 341 342 343 343 344 345 345 344 341 340 339 338 338 336 335 336 336 337 338 340 341 341 341 339 335 332 329 327 326 328 331 333 335 337 338 337 336 331 320 307 299 293 288 281 276 272 269 268 269 268 267 266 268 272 279 284 288 288 287 282 270 258 241
347 347 345 343 343 344 343 342 342 342 341 340 338 337 337 338 338 336 334 333 335 336 336 337 339 340 341 344 347 349 349 347 343 340 339 339 339 339 341 342 344 346 347 347 347 346 342 338 338 339 341 348 355 358 356 355 357 356 356 354 352 347 339 326 310 294 279 268 262 260 261 263 266 271 276 280 282 282 281 276 268 257 243 226 209